• Processing (Info)

  • MPEC 2023-J88 : 2023 JL

    The following Minor Planet Electronic Circular may be linked-to from your own Web pages, but must not otherwise be redistributed electronically.

    A form allowing access to any MPEC is at the bottom of this page.


    Read MPEC 2023-J87 Read MPEC 2023-J89


    M.P.E.C. 2023-J88                                  Issued 2023 May 10, 22:03 UT
    
         The Minor Planet Electronic Circulars contain information on unusual
             minor planets, routine data on comets and natural satellites,
             and occasional editorial announcements.  They are published
        on behalf of Division F of the International Astronomical Union by the
              Minor Planet Center, Smithsonian Astrophysical Observatory,
                              Cambridge, MA 02138, U.S.A.
    			  
                 Prepared using the Tamkin Foundation Computer Network
    
                                  MPC@CFA.HARVARD.EDU
                URL https://www.minorplanetcenter.net/    ISSN 1523-6714
    
                                     2023 JL                                 
    
    
    Observations:
         K23J00L*1C2023 05 10.23612714 26 15.330-09 39 49.60               VEJ088G96
         K23J00L 1C2023 05 10.24186814 26 31.530-09 35 37.10               VEJ088G96
         K23J00L 1C2023 05 10.24759314 26 47.880-09 31 22.30         18.20GVEJ088G96
         K23J00L  C2023 05 10.28547514 28 34.954-09 02 45.29         18.0 GVEJ088H01
         K23J00L  C2023 05 10.28936814 28 46.590-08 59 41.69         18.0 GVEJ088H01
         K23J00L KC2023 05 10.29473114 29 05.939-08 55 08.58         18.18GVEJ088I52
         K23J00L KC2023 05 10.29524614 29 07.465-08 54 44.35         18.23GVEJ088I52
         K23J00L KC2023 05 10.29577114 29 09.049-08 54 19.37         18.17GVEJ088I52
         K23J00L KC2023 05 10.29630914 29 10.694-08 53 53.48         18.04GVEJ088I52
         K23J00L  C2023 05 10.29863614 29 14.598-08 52 19.20         18.0 GVEJ088H01
         K23J00L  C2023 05 10.30708414 29 40.443-08 45 30.72         18.1 GVEJ088H01
         K23J00L KC2023 05 10.39054714 34 16.712-07 33 12.06         17.97GVEJ088I52
         K23J00L KC2023 05 10.39107414 34 18.541-07 32 42.97         17.98GVEJ088I52
         K23J00L KC2023 05 10.39158914 34 20.334-07 32 15.00         17.94GVEJ088I52
         K23J00L KC2023 05 10.39210714 34 22.156-07 31 46.34         17.88GVEJ088I52
         K23J00L 1C2023 05 10.75358 15 05 47.79 -00 14 19.0          18.2 GVEJ088C40
         K23J00L 1C2023 05 10.75462 15 05 54.39 -00 12 38.4          18.0 GVEJ088C40
         K23J00L 1C2023 05 10.75563 15 06 00.75 -00 11 00.7          17.9 GVEJ088C40
         K23J00L 1C2023 05 10.75788 15 06 15.01 -00 07 23.6          17.9 GVEJ088C40
         K23J00L 1C2023 05 10.76572 15 07 05.07 +00 05 22.8          17.3 GVEJ088C40
         K23J00L 1C2023 05 10.77023 15 07 34.09 +00 12 47.7          17.4 GVEJ088C40
         K23J00L 1C2023 05 10.79458 15 10 14.36 +00 53 50.9          18.2 GVEJ088C40
         K23J00L 1C2023 05 10.79685 15 10 29.63 +00 57 45.7          18.0 GVEJ088C40
         K23J00L 1C2023 05 10.79910 15 10 44.73 +01 01 39.0          18.2 GVEJ088C40
         K23J00L KC2023 05 10.85682 15 17 51.45 +02 45 26.5          17.1 GXEJ088G02
         K23J00L KC2023 05 10.85842 15 18 03.38 +02 48 29.4          17.3 GXEJ088G02
         K23J00L KC2023 05 10.86009 15 18 16.00 +02 51 40.9          17.2 GXEJ088G02
         K23J00L KB2023 05 10.87637 15 20 36.76 +03 24 53.4          17.3 GXEJ088K19
         K23J00L KB2023 05 10.87800 15 20 49.46 +03 28 06.7          17.4 GXEJ088K19
         K23J00L KB2023 05 10.87962 15 21 02.07 +03 31 18.8          17.3 GXEJ088K19
         K23J00L KC2023 05 10.88164615 21 17.67 +03 33 10.5          17.1 VqEJ088J69
         K23J00L KC2023 05 10.89146215 22 35.90 +03 52 51.7          17.5 VqEJ088J69
         K23J00L KC2023 05 10.89668715 23 18.00 +04 03 29.2          17.7 VqEJ088J69
    
    Observer details:
    C40 Kuban State University Astrophysical Observatory.  Observers A. Ivanov, A.
        Barcov, V. Ivanov, V. Lysenko, N. Yakovenko, N. Ivanova, N. Gorbunov, G.
        Kurbatov, P. Shchukin, V. Roshchupko.  Measurer A. Ivanov.  0.51-m f/8
        reflector + CCD.
    G02 KYSUCE Observatory, Kysucke Nove Mesto.  Observer M. Urbanik.  0.40-m
        f/5.5 Corrected Dall-Kirkham + CCD.
    G96 Mt. Lemmon Survey.  Observer G. J. Leonard.  Measurers E. J. Christensen,
        D. Fay, J. B. Fazekas, D. C. Fuls, A. R. Gibbs, A. D. Grauer, H. Groeller,
        J. K. Hogan, R. A. Kowalski, S. M. Larson, G. J. Leonard, D. Rankin, R. L.
        Seaman, A. Serrano, F. C. Shelly, K. W. Wierzchos.  1.5-m reflector + 10K
        CCD.
    H01 Magdalena Ridge Observatory, Socorro.  Observers W. H. Ryan, E. V. Ryan.
        Measurer W. H. Ryan.  2.4-m f/8.9 Ritchey-Chretien + CCD.
    I52 Steward Observatory, Mt. Lemmon Station.  Observer R. A. Kowalski.
        Measurers E. J. Christensen, D. Fay, J. B. Fazekas, D. C. Fuls, A. R.
        Gibbs, A. D. Grauer, H. Groeller, J. K. Hogan, R. A. Kowalski, S. M.
        Larson, G. J. Leonard, D. Rankin, R. L. Seaman, A. Serrano, F. C. Shelly,
        K. W. Wierzchos.  1.0-m prime focus + CCD.
    J69 North Observatory, Clanfield.  Observer D. Briggs.  0.3-m f/5.4 Newtonian
        reflector + CCD.
    K19 PASTIS Observatory, Banon.  Observer C. Demeautis.  0.28-m f/2.2 reflector
        + CMO.
    
    Orbital elements:
    2023 JL                                                  Earth MOID = 0.0040 AU
    Epoch 2023 Feb. 25.0 TT = JDT 2460000.5                 Veres                   
    M 319.81704              (2000.0)            P               Q                  
    n   0.36101750     Peri.   49.33931     +0.13246412     +0.98782464             
    a   1.9533671      Node   228.46826     -0.93911324     +0.09875133             
    e   0.5410242      Incl.    6.25663     -0.31704824     +0.12021085             
    P   2.73           H   27.79          G   0.15           U   7                  
    Residuals in seconds of arc
    230510 G96  0.5-  0.0     230510 I52  0.2+  0.2-    230510 C40  0.4+  0.2+
    230510 G96  0.5-  0.0     230510 I52  0.1-  0.1-    230510 C40  0.5-  0.2-
    230510 G96  0.9+  0.8+    230510 I52  0.3-  0.5-    230510 G02  0.8+  1.2+
    230510 H01  0.3+  0.3+    230510 I52  0.2-  0.4-    230510 G02  0.4-  0.5+
    230510 H01  0.0   0.1-    230510 C40  0.0   0.2-    230510 G02  0.3+  0.2-
    230510 I52  0.1+  0.1+    230510 C40  0.4+  0.2+    230510 K19  0.6+  0.6+
    230510 I52  0.4-  0.2-    230510 C40  0.0   0.3+    230510 K19  0.8+  0.3+
    230510 I52  0.4-  0.4-    230510 C40  0.1-  0.4-    230510 K19  0.3+  0.4-
    230510 I52  0.1-  0.2-    230510 C40  0.2-  0.4+    230510 J69  0.2-  0.1+
    230510 H01  0.0   0.0     230510 C40  0.7-  0.2+    230510 J69  0.2+  0.7-
    230510 H01  0.0   0.1-    230510 C40  0.2-  0.3+    230510 J69  0.3-  0.4-
    
    Ephemeris:
    2023 JL                  a,e,i = 1.95, 0.54, 6                   q = 0.8965
    Date    TT    R. A. (2000) Decl.     Delta      r    Elong.  Phase     V
    2023 04 10    13 16 02.8 -24 25 48   0.2387  1.2320   163.2    13.6    25.9
    ...
    2023 04 25    13 15 25.6 -24 44 38   0.1189  1.1199   162.9    15.3    24.3
    ...
    2023 05 03    13 20 04.0 -23 42 39   0.06049 1.0648   159.8    19.0    22.8
    ...
    2023 05 09    13 50 01.7 -17 38 29   0.01811 1.0266   163.0    16.7    20.0
    2023 05 10    14 15 20.6 -12 00 20   0.01134 1.0206   166.8    13.1    18.9
    2023 05 11    15 38 15.7 +08 09 52   0.0054301.0146   153.2    26.7    17.7
    ...
    2023 05 17    00 45 36.9 +29 36 23   0.03923 0.9811    39.3   139.3    27.5
    ...
    2023 05 25    01 01 49.2 +27 25 50   0.09619 0.9435    42.1   134.0    28.7
    ...
    2023 06 09    01 18 58.9 +26 43 13   0.2060  0.9006    51.3   118.4    28.9
    
    M. P. C. Staff               (C) Copyright 2023 MPC           M.P.E.C. 2023-J88
    


    Read MPEC 2023-J87 Read MPEC 2023-J89


    MPEC number:

    Enter an MPEC number in one of the following forms:

    • 1997-B01 (the full form)
    • J97B01 (the packed version of the full form)
    • B01 (the abbreviated form)